Home > Weather > Palermo > Past weeks

Flag for Italy Weather for the Past 2 Weeks in Palermo, Italy

Now
48 °F

Passing clouds.


Feels Like: 47 °F
Forecast: 50 / 62 °F
Wind: 3 mph from Southeast

Location: Palermo / Punta Raisi

Current Time: Feb 6, 2016 at 12:19:44 AM

Latest Report: Feb 5, 2016 at 11:20 PM


Visibility: N/A

Pressure: 30.42 "Hg

Humidity: 76%

Dew point: 41 °F

Location of PalermoLocation

Historic Weather in Palermo — Graph

°F

Palermo Temperature Yesterday

Maximum temperature yesterday: 59 °F (at 1:20 PM)
Minimum temperature yesterday: 50 °F (at 9:20 PM)
Average temperature yesterday: 56 °F

High & Low Weather Summary for the Past Weeks

 TemperatureHumidityPressure
High64 °F (Jan 22, 10:20 AM)100% (Feb 1, 11:20 PM)30.60 "Hg (Feb 1, 11:20 PM)
Low45 °F (Jan 27, 4:50 AM)39% (Jan 25, 1:20 PM)30.12 "Hg (Feb 3, 5:20 PM)
Average55 °F74%30.39 "Hg
* Reported Jan 21 10:20 PM — Feb 5 10:20 PM, Palermo, Weather by CustomWeather, © 2016

Note: Actual official high and low records may vary slightly from our data, if they occured in-between our weather recording intervals... More about our weather records

Advertising

Palermo Weather History for the Previous 24 Hours

 ConditionsComfort  
Time TempWeatherWind HumidityBarometerVisibility
10:20 PM
Fri, Feb 5
50 °FPassing clouds.9 mph67%30.42 "HgN/A
9:50 PM52 °FPassing clouds.3 mph67%30.39 "HgN/A
9:20 PM50 °FPassing clouds.6 mph71%30.39 "HgN/A
8:50 PM52 °FPassing clouds.3 mph72%30.39 "HgN/A
7:50 PM52 °FPassing clouds.5 mph72%30.39 "HgN/A
7:20 PM52 °FPassing clouds.6 mph72%30.39 "HgN/A
6:50 PM54 °FPassing clouds.5 mph72%30.36 "HgN/A
5:50 PM55 °FPassing clouds.3 mph67%30.36 "HgN/A
5:20 PM57 °FPassing clouds.3 mph63%30.36 "HgN/A
4:20 PM57 °FPassing clouds.3 mph63%30.33 "HgN/A
3:50 PM57 °FSunny.5 mph63%30.33 "Hg10 mi
3:20 PM57 °FSunny.3 mph63%30.33 "Hg10 mi
2:50 PM59 °FPassing clouds.3 mph59%30.33 "HgN/A
2:20 PM57 °FPassing clouds.5 mph67%30.33 "HgN/A
1:50 PM57 °FPassing clouds.5 mph63%30.33 "HgN/A
1:20 PM59 °FPassing clouds.5 mph63%30.33 "HgN/A
12:50 PM57 °FPassing clouds.7 mph67%30.33 "HgN/A
12:20 PM57 °FPassing clouds.7 mph67%30.33 "HgN/A
11:50 AM57 °FPassing clouds.8 mph63%30.33 "HgN/A
11:20 AM57 °FPassing clouds.7 mph63%30.33 "HgN/A
10:50 AM57 °FScattered clouds.10 mph63%30.33 "HgN/A
10:20 AM57 °FPassing clouds.9 mph63%30.33 "HgN/A
9:50 AM57 °FPassing clouds.10 mph63%30.33 "HgN/A
9:20 AM57 °FPassing clouds.9 mph63%30.30 "HgN/A
8:50 AM57 °FPassing clouds.10 mph63%30.30 "HgN/A
8:20 AM55 °FPassing clouds.9 mph63%30.30 "HgN/A
7:50 AM55 °FSunny.10 mph63%30.27 "Hg10 mi
7:20 AM55 °FPassing clouds.8 mph55%30.27 "HgN/A
6:50 AM55 °FPassing clouds.12 mph59%30.27 "HgN/A
6:20 AM57 °FPassing clouds.14 mph48%30.27 "HgN/A
5:50 AM57 °FPassing clouds.14 mph51%30.27 "HgN/A
5:20 AM57 °FPassing clouds.15 mph59%30.27 "HgN/A
4:50 AM57 °FPassing clouds.17 mph55%30.24 "HgN/A
4:20 AM57 °FPassing clouds.17 mph55%30.24 "HgN/A
3:50 AM57 °FPassing clouds.17 mph55%30.24 "HgN/A
2:50 AM57 °FPassing clouds.17 mph51%30.27 "HgN/A
2:20 AM57 °FPassing clouds.18 mph51%30.27 "HgN/A
1:50 AM55 °FPassing clouds.18 mph55%30.27 "HgN/A
12:50 AM55 °FPassing clouds.18 mph55%30.27 "HgN/A
12:20 AM55 °FPassing clouds.18 mph55%30.27 "HgN/A
Weather by CustomWeather, © 2016

See weather overviewHow to use our weather pages